            UTC date,        Decimal date,     TCCON,      CAMS,       CSU,        OU, TM5-4DVAR,      Ames,        CT,        UT,      LoFI,     Baker,  CMS-Flux
 2014-07-01 13:21:28,   2014.497415271436,  395.7200,       nan,       nan,  399.3851,       nan,       nan,       nan,       nan,  395.3702,  397.0800,       nan
 2014-07-01 13:42:56,   2014.497456113648,  394.1533,       nan,       nan,  399.1945,       nan,       nan,       nan,       nan,  395.2667,  397.1600,       nan
 2014-07-01 14:20:45,   2014.497528063166,  395.0500,       nan,       nan,  399.0963,       nan,       nan,       nan,       nan,  395.1339,  397.2500,       nan
 2014-07-01 14:46:44,   2014.497577498732,  394.7400,       nan,       nan,  398.9527,       nan,       nan,       nan,       nan,  394.9417,  397.4400,       nan
 2014-07-03 08:10:51,   2014.502303748097,  392.3766,       nan,       nan,  398.4306,       nan,       nan,       nan,       nan,  394.8535,  395.9100,       nan
 2014-07-03 08:28:37,   2014.502337550736,  392.6700,       nan,       nan,  398.5047,       nan,       nan,       nan,       nan,  394.9395,  395.7600,       nan
 2014-07-03 09:25:26,   2014.502445649417,  392.5200,       nan,       nan,  398.4860,       nan,       nan,       nan,       nan,  394.6171,  395.6100,       nan
 2014-07-03 09:37:23,   2014.502468385337,  392.8400,       nan,       nan,  398.4859,       nan,       nan,       nan,       nan,  394.6170,  395.6000,       nan
 2014-07-03 10:39:10,   2014.502585933536,  392.7200,       nan,       nan,  398.4026,       nan,       nan,       nan,       nan,  394.6168,  395.5200,       nan
 2014-07-03 11:18:19,   2014.502660419838,  392.2150,       nan,       nan,  398.4022,       nan,       nan,       nan,       nan,  394.6166,  395.4600,       nan
 2014-07-03 11:35:28,   2014.502693049214,  392.8800,       nan,       nan,  398.4024,       nan,       nan,       nan,       nan,  394.6167,  395.4300,       nan
 2014-07-03 12:13:58,   2014.502766298833,  392.3845,       nan,       nan,  398.3000,       nan,       nan,       nan,       nan,  393.6162,  395.4600,       nan
 2014-07-03 13:53:19,   2014.502955320903,  392.5967,       nan,       nan,  398.1283,       nan,       nan,       nan,       nan,  393.3691,  395.5800,       nan
 2014-07-03 13:58:19,   2014.502964833841,  391.3800,       nan,       nan,  398.1283,       nan,       nan,       nan,       nan,  393.3691,  395.5700,       nan
 2014-07-03 15:10:04,   2014.503101344495,  391.9300,       nan,       nan,  397.9300,       nan,       nan,       nan,       nan,  392.4470,  395.8900,       nan
 2014-07-04 09:10:06,   2014.505156202435,  394.0850,       nan,       nan,  399.5174,       nan,       nan,       nan,       nan,  395.9665,  397.0500,       nan
 2014-07-04 09:44:13,   2014.505221112380,  394.4358,       nan,       nan,  399.5182,       nan,       nan,       nan,       nan,  395.9671,  397.0200,       nan
 2014-07-04 10:12:35,   2014.505275082445,  394.1031,       nan,       nan,  399.5193,       nan,       nan,       nan,       nan,  395.9679,  397.0000,       nan
 2014-07-04 10:41:01,   2014.505329179351,  394.0780,       nan,       nan,  399.3403,       nan,       nan,       nan,       nan,  395.9687,  396.9800,       nan
 2014-07-04 11:12:45,   2014.505389554794,  394.2733,       nan,       nan,  399.3413,       nan,       nan,       nan,       nan,  395.9693,  396.9500,       nan
 2014-07-04 11:45:47,   2014.505452403602,  394.6188,       nan,       nan,  399.3431,       nan,       nan,       nan,       nan,  395.9705,  396.9100,       nan
 2014-07-04 12:12:35,   2014.505503392948,  394.8015,       nan,       nan,  399.1134,       nan,       nan,       nan,       nan,  395.2412,  397.0100,       nan
 2014-07-04 12:38:56,   2014.505553526129,  393.8850,       nan,       nan,  399.1136,       nan,       nan,       nan,       nan,  395.2415,  396.9900,       nan
 2014-07-04 13:19:17,   2014.505630295535,  394.1872,       nan,       nan,  399.0314,       nan,       nan,       nan,       nan,  395.1396,  397.1200,       nan
 2014-07-04 13:31:19,   2014.505653190005,  393.9100,       nan,       nan,  398.7899,       nan,       nan,       nan,       nan,  395.0368,  397.2700,       nan
 2014-07-04 15:05:09,   2014.505831716134,  393.8700,       nan,       nan,  398.4164,       nan,       nan,       nan,       nan,  394.2718,  397.6700,       nan
 2014-07-07 12:44:14,   2014.513782787925,  394.4273,       nan,       nan,  397.9832,       nan,       nan,       nan,       nan,  394.1556,  394.9500,       nan
 2014-07-07 13:13:28,   2014.513838406900,  393.4640,       nan,       nan,  397.8652,       nan,       nan,       nan,       nan,  393.9998,  395.0300,       nan
 2014-07-07 13:37:46,   2014.513884639777,  393.8110,       nan,       nan,  397.6148,       nan,       nan,       nan,       nan,  393.8478,  395.1100,       nan
 2014-07-07 14:15:49,   2014.513957033232,  393.9800,       nan,       nan,  397.4628,       nan,       nan,       nan,       nan,  393.6536,  395.2000,       nan
 2014-07-07 14:44:01,   2014.514010686200,  394.4438,       nan,       nan,  397.2423,       nan,       nan,       nan,       nan,  393.3737,  395.3600,       nan
 2014-07-07 15:05:21,   2014.514051274734,  394.7483,       nan,       nan,  397.1747,       nan,       nan,       nan,       nan,  392.8926,  395.3300,       nan
 2014-07-09 09:22:39,   2014.518878710046,  392.1950,       nan,       nan,  397.3382,       nan,       nan,       nan,       nan,  393.8157,  394.2400,       nan
 2014-07-09 09:30:46,   2014.518894152714,  392.8100,       nan,       nan,  397.3384,       nan,       nan,       nan,       nan,  393.8158,  394.2200,       nan
 2014-07-09 10:03:02,   2014.518955542872,  392.7100,       nan,       nan,  397.3388,       nan,       nan,       nan,       nan,  393.8161,  394.1800,       nan
 2014-07-09 10:47:40,   2014.519040461695,  391.4900,       nan,       nan,  397.1858,       nan,       nan,       nan,       nan,  393.8165,  394.1000,       nan
 2014-07-09 11:18:28,   2014.519099061390,  392.8500,       nan,       nan,  397.1878,       nan,       nan,       nan,       nan,  393.8176,  394.0400,       nan
 2014-07-09 11:53:12,   2014.519165144597,  392.0320,       nan,       nan,  397.1894,       nan,       nan,       nan,       nan,  393.8184,  393.9600,       nan
 2014-07-09 12:14:13,   2014.519205130644,  392.1387,       nan,       nan,  396.9470,       nan,       nan,       nan,       nan,  393.2029,  394.0200,       nan
 2014-07-09 12:44:44,   2014.519263191273,  392.1242,       nan,       nan,  396.9505,       nan,       nan,       nan,       nan,  393.2064,  393.9600,       nan
 2014-07-09 13:09:11,   2014.519309709538,  391.6530,       nan,       nan,  396.8265,       nan,       nan,       nan,       nan,  393.0583,  394.0200,       nan
 2014-07-09 13:45:27,   2014.519378710046,  392.4400,       nan,       nan,  396.5781,       nan,       nan,       nan,       nan,  392.9130,  394.0500,       nan
 2014-07-09 14:12:20,   2014.519429857940,  391.5929,       nan,       nan,  396.4172,       nan,       nan,       nan,       nan,  392.7265,  394.1200,       nan
 2014-07-09 14:40:54,   2014.519484208524,  392.2525,       nan,       nan,  396.1847,       nan,       nan,       nan,       nan,  392.4588,  394.2400,       nan
 2014-07-09 15:03:18,   2014.519526826484,  391.2666,       nan,       nan,  396.1121,       nan,       nan,       nan,       nan,  391.8545,  394.2300,       nan
 2014-07-14 08:46:05,   2014.532507768899,  391.8391,       nan,       nan,  396.9132,       nan,       nan,       nan,       nan,  393.1566,  392.5300,       nan
 2014-07-14 09:11:29,   2014.532556094622,  391.8567,       nan,       nan,  396.7808,       nan,       nan,       nan,       nan,  393.1670,  392.4500,       nan
 2014-07-14 09:44:21,   2014.532618626332,  391.2373,       nan,       nan,  396.8722,       nan,       nan,       nan,       nan,  393.2764,  392.3000,       nan
 2014-07-14 10:13:35,   2014.532674245307,  391.6147,       nan,       nan,  396.8723,       nan,       nan,       nan,       nan,  393.2764,  392.2300,       nan
 2014-07-14 10:43:59,   2014.532732083968,  392.0783,       nan,       nan,  396.7090,       nan,       nan,       nan,       nan,  393.2765,  392.1600,       nan
 2014-07-14 11:12:45,   2014.532786815068,  391.8094,       nan,       nan,  396.7093,       nan,       nan,       nan,       nan,  393.2766,  392.1000,       nan
 2014-07-14 11:46:36,   2014.532851217656,  391.7800,       nan,       nan,  396.7099,       nan,       nan,       nan,       nan,  393.2769,  392.0300,       nan
 2014-07-14 12:13:08,   2014.532901699645,  392.0413,       nan,       nan,  396.4809,       nan,       nan,       nan,       nan,  392.8723,  392.0600,       nan
 2014-07-14 12:43:21,   2014.532959189498,  391.7127,       nan,       nan,  396.3561,       nan,       nan,       nan,       nan,  392.7205,  392.1100,       nan
 2014-07-14 13:11:29,   2014.533012715627,  391.8721,       nan,       nan,  396.3563,       nan,       nan,       nan,       nan,  392.7207,  392.0700,       nan
 2014-07-14 13:37:58,   2014.533063102486,  390.0800,       nan,       nan,  396.1305,       nan,       nan,       nan,       nan,  392.5734,  392.1200,       nan
 2014-07-14 14:54:10,   2014.533208079655,  391.2975,       nan,       nan,  395.7442,       nan,       nan,       nan,       nan,  392.1201,  392.3300,       nan
 2014-07-14 15:02:45,   2014.533224410198,  391.1400,       nan,       nan,  395.7105,       nan,       nan,       nan,       nan,  391.8557,  392.3600,       nan
 2014-07-18 12:06:43,   2014.543848395484,  392.1620,       nan,       nan,  396.6800,       nan,       nan,       nan,       nan,  393.2031,  395.3700,       nan
 2014-07-18 12:48:06,   2014.543927130898,  391.6914,       nan,       nan,  396.5660,       nan,       nan,       nan,       nan,  393.0598,  395.5300,       nan
 2014-07-18 13:41:27,   2014.544028633942,  392.0750,       nan,       nan,  396.3813,       nan,       nan,       nan,       nan,  392.9208,  395.6900,       nan
 2014-07-18 14:14:01,   2014.544090594876,  392.0008,       nan,       nan,  396.2358,       nan,       nan,       nan,       nan,  392.7445,  395.8900,       nan
 2014-07-18 14:43:35,   2014.544146848047,  392.8675,       nan,       nan,  396.0263,       nan,       nan,       nan,       nan,  392.4942,  396.1800,       nan
 2014-07-18 15:01:06,   2014.544180175038,  392.0150,       nan,       nan,  396.0136,       nan,       nan,       nan,       nan,  392.8192,  396.1900,       nan
 2014-07-21 08:18:35,   2014.551633529934,  391.5833,       nan,       nan,  396.3738,       nan,       nan,       nan,       nan,  391.8147,  394.0600,       nan
 2014-07-21 08:42:37,   2014.551679255454,  391.5573,       nan,       nan,  396.4909,       nan,       nan,       nan,       nan,  391.9575,  393.8700,       nan
 2014-07-21 09:12:45,   2014.551736586758,  390.9088,       nan,       nan,  396.3091,       nan,       nan,       nan,       nan,  391.4820,  393.8000,       nan
 2014-07-21 09:43:46,   2014.551795598681,  391.0519,       nan,       nan,  396.4041,       nan,       nan,       nan,       nan,  391.5986,  393.6200,       nan
 2014-07-21 10:12:54,   2014.551851027397,  390.9536,       nan,       nan,  396.4046,       nan,       nan,       nan,       nan,  391.5989,  393.5500,       nan
 2014-07-21 10:43:05,   2014.551908453830,  390.5300,       nan,       nan,  396.1866,       nan,       nan,       nan,       nan,  391.5987,  393.4700,       nan
 2014-07-21 11:11:36,   2014.551962709285,  390.5191,       nan,       nan,  396.1862,       nan,       nan,       nan,       nan,  391.5984,  393.4000,       nan
 2014-07-21 11:45:43,   2014.552027619229,  391.1490,       nan,       nan,  396.0890,       nan,       nan,       nan,       nan,  391.4827,  393.4200,       nan
 2014-07-21 12:16:49,   2014.552086789701,  390.6614,       nan,       nan,  395.8873,       nan,       nan,       nan,       nan,  390.6804,  393.3600,       nan
 2014-07-21 12:37:39,   2014.552126426941,  391.2612,       nan,       nan,  395.7591,       nan,       nan,       nan,       nan,  390.5118,  393.4400,       nan
 2014-07-21 13:26:20,   2014.552219051243,  390.3700,       nan,       nan,  395.6340,       nan,       nan,       nan,       nan,  390.3500,  393.4500,       nan
 2014-07-21 13:37:43,   2014.552240709031,  391.2540,       nan,       nan,  395.4504,       nan,       nan,       nan,       nan,  390.3500,  393.4300,       nan
 2014-07-21 14:09:23,   2014.552300957636,  391.7250,       nan,       nan,  395.2862,       nan,       nan,       nan,       nan,  390.1443,  393.5000,       nan
 2014-07-21 14:50:26,   2014.552379058853,  391.0300,       nan,       nan,  395.0529,       nan,       nan,       nan,       nan,  389.8562,  393.6100,       nan
 2014-07-21 14:59:16,   2014.552395865043,  391.4700,       nan,       nan,  395.0531,       nan,       nan,       nan,       nan,  389.8564,  393.5800,       nan
 2014-07-25 08:23:07,   2014.562601059107,  390.6100,       nan,       nan,  395.2684,       nan,       nan,       nan,       nan,  391.8731,  392.6800,       nan
 2014-07-25 08:42:41,   2014.562638286403,  390.9340,       nan,       nan,  395.4084,       nan,       nan,       nan,       nan,  392.0310,  392.5300,       nan
 2014-07-25 09:03:58,   2014.562678779807,  391.2733,       nan,       nan,  395.3513,       nan,       nan,       nan,       nan,  391.5314,  392.4700,       nan
 2014-07-25 09:45:07,   2014.562757071284,  390.8343,       nan,       nan,  395.4615,       nan,       nan,       nan,       nan,  391.6644,  392.3000,       nan
 2014-07-25 10:01:40,   2014.562788559107,  390.3467,       nan,       nan,  395.4619,       nan,       nan,       nan,       nan,  391.6647,  392.2700,       nan
 2014-07-25 11:08:32,   2014.562915778793,  391.3150,       nan,       nan,  395.3489,       nan,       nan,       nan,       nan,  391.6654,  392.1200,       nan
 2014-07-25 11:50:40,   2014.562995941147,  391.3634,       nan,       nan,  395.2379,       nan,       nan,       nan,       nan,  391.5333,  392.1000,       nan
 2014-07-25 12:00:54,   2014.563015410959,  390.0000,       nan,       nan,  395.1339,       nan,       nan,       nan,       nan,  390.6237,  392.0700,       nan
 2014-07-25 12:44:58,   2014.563099251649,  390.7533,       nan,       nan,  394.9889,       nan,       nan,       nan,       nan,  390.4354,  392.0800,       nan
 2014-07-25 13:00:50,   2014.563129439371,  390.9000,       nan,       nan,  394.9898,       nan,       nan,       nan,       nan,  390.4365,  392.0500,       nan
 2014-07-25 13:45:50,   2014.563215055809,  389.9900,       nan,       nan,  394.7709,       nan,       nan,       nan,       nan,  390.2550,  392.0700,       nan
 2014-07-25 14:20:07,   2014.563280282851,  391.0900,       nan,       nan,  394.5912,       nan,       nan,       nan,       nan,  390.0259,  392.1400,       nan
 2014-07-29 09:25:17,   2014.573678240741,  390.8200,       nan,       nan,  396.2242,       nan,       nan,       nan,       nan,  392.6209,  393.0400,       nan
 2014-07-29 09:36:10,   2014.573698947235,  391.7125,       nan,       nan,  396.2242,       nan,       nan,       nan,       nan,  392.6209,  393.0300,       nan
 2014-07-29 10:41:33,   2014.573823344749,  391.5900,       nan,       nan,  396.2161,       nan,       nan,       nan,       nan,  392.7372,  392.8800,       nan
 2014-07-29 11:07:17,   2014.573872304668,  391.4775,       nan,       nan,  396.1163,       nan,       nan,       nan,       nan,  392.6213,  392.9700,       nan
 2014-07-29 11:39:09,   2014.573932933790,  391.0917,       nan,       nan,  396.1167,       nan,       nan,       nan,       nan,  392.6215,  392.9400,       nan
 2014-07-29 12:12:01,   2014.573995465500,  391.5423,       nan,       nan,  396.0220,       nan,       nan,       nan,       nan,  392.6470,  392.9100,       nan
 2014-07-29 12:41:32,   2014.574051623541,  391.3146,       nan,       nan,  395.8945,       nan,       nan,       nan,       nan,  392.4995,  393.0300,       nan
 2014-07-29 13:12:31,   2014.574110572045,  391.2744,       nan,       nan,  395.7695,       nan,       nan,       nan,       nan,  392.3565,  393.1500,       nan
 2014-07-29 13:43:37,   2014.574169742516,  391.2331,       nan,       nan,  395.5379,       nan,       nan,       nan,       nan,  392.1751,  393.3000,       nan
 2014-07-29 14:12:47,   2014.574225234652,  391.1965,       nan,       nan,  395.5385,       nan,       nan,       nan,       nan,  392.1758,  393.2900,       nan
 2014-07-29 14:39:56,   2014.574276889904,  390.9507,       nan,       nan,  395.3124,       nan,       nan,       nan,       nan,  391.9185,  393.5200,       nan
 2014-07-30 08:35:41,   2014.576323598427,  392.0900,       nan,       nan,  396.4480,       nan,       nan,       nan,       nan,  392.3977,  393.3600,       nan
 2014-07-30 09:47:54,   2014.576460996956,  392.0643,       nan,       nan,  396.4815,       nan,       nan,       nan,       nan,  392.3383,  393.1700,       nan
 2014-07-30 10:08:44,   2014.576500634196,  392.0089,       nan,       nan,  396.4818,       nan,       nan,       nan,       nan,  392.3389,  393.1600,       nan
 2014-07-30 10:41:53,   2014.576563704972,  391.8994,       nan,       nan,  396.4545,       nan,       nan,       nan,       nan,  392.4587,  393.0200,       nan
 2014-07-30 11:09:10,   2014.576615613902,  391.2940,       nan,       nan,  396.3587,       nan,       nan,       nan,       nan,  392.3394,  393.1200,       nan
 2014-07-30 11:43:01,   2014.576680016489,  391.6830,       nan,       nan,  396.3594,       nan,       nan,       nan,       nan,  392.3401,  393.1000,       nan
 2014-07-30 13:14:45,   2014.576854547184,  391.6718,       nan,       nan,  396.0116,       nan,       nan,       nan,       nan,  391.2047,  393.3600,       nan
 2014-07-30 13:48:13,   2014.576918220446,  391.7356,       nan,       nan,  395.7860,       nan,       nan,       nan,       nan,  391.0018,  393.5400,       nan
 2014-07-30 14:13:58,   2014.576967212075,  391.6069,       nan,       nan,  395.7870,       nan,       nan,       nan,       nan,  391.0028,  393.5400,       nan
 2014-07-30 14:32:38,   2014.577002727042,  391.7750,       nan,       nan,  395.5631,       nan,       nan,       nan,       nan,  390.7172,  393.8000,       nan
 2014-07-31 08:20:58,   2014.579035324708,  392.4143,       nan,       nan,  397.1396,       nan,       nan,       nan,       nan,  392.7360,  394.3100,       nan
 2014-07-31 08:43:32,   2014.579078259767,  392.7060,       nan,       nan,  397.1398,       nan,       nan,       nan,       nan,  392.7365,  394.3100,       nan
 2014-07-31 09:09:37,   2014.579127885591,  392.3050,       nan,       nan,  397.2067,       nan,       nan,       nan,       nan,  392.9039,  394.1100,       nan
 2014-07-31 09:49:50,   2014.579204401319,  392.3529,       nan,       nan,  397.2066,       nan,       nan,       nan,       nan,  392.9047,  394.0800,       nan
 2014-07-31 10:07:25,   2014.579237855150,  392.4250,       nan,       nan,  397.2065,       nan,       nan,       nan,       nan,  392.9055,  394.0700,       nan
 2014-07-31 10:48:06,   2014.579315258752,  392.0300,       nan,       nan,  397.1163,       nan,       nan,       nan,       nan,  392.9063,  394.0300,       nan
 2014-07-31 11:13:21,   2014.579363299087,  392.0290,       nan,       nan,  397.1164,       nan,       nan,       nan,       nan,  392.9067,  394.0000,       nan
 2014-07-31 11:40:19,   2014.579414605530,  392.2300,       nan,       nan,  397.1164,       nan,       nan,       nan,       nan,  392.9069,  393.9800,       nan
 2014-08-04 09:16:16,   2014.590099441908,  392.5339,       nan,       nan,  396.4337,       nan,       nan,       nan,       nan,  392.1679,  394.1400,       nan
 2014-08-04 09:43:32,   2014.590151319127,  392.4453,       nan,       nan,  396.4337,       nan,       nan,       nan,       nan,  392.1680,  394.1100,       nan
 2014-08-04 10:05:51,   2014.590193778539,  391.5887,       nan,       nan,  396.4337,       nan,       nan,       nan,       nan,  392.1682,  394.0800,       nan
 2014-08-04 10:41:25,   2014.590261447235,  391.8700,       nan,       nan,  396.3458,       nan,       nan,       nan,       nan,  392.1685,  394.0200,       nan
 2014-08-04 11:21:23,   2014.590337487316,  392.9475,       nan,       nan,  396.3462,       nan,       nan,       nan,       nan,  392.1688,  393.9500,       nan
 2014-08-04 11:42:35,   2014.590377822171,  393.2720,       nan,       nan,  396.3464,       nan,       nan,       nan,       nan,  392.1689,  393.9100,       nan
 2014-08-04 14:13:39,   2014.590665239726,  392.0717,       nan,       nan,  395.5410,       nan,       nan,       nan,       nan,  390.7379,  394.4400,       nan
 2014-08-04 14:38:49,   2014.590713121512,  393.0850,       nan,       nan,  395.5417,       nan,       nan,       nan,       nan,  390.7389,  394.3800,       nan
 2014-08-05 07:54:02,   2014.592682711821,  392.9760,       nan,       nan,  396.3520,       nan,       nan,       nan,       nan,  391.7241,  393.6200,       nan
 2014-08-05 08:11:22,   2014.592715690005,  391.8380,       nan,       nan,  396.3517,       nan,       nan,       nan,       nan,  391.7223,  393.6300,       nan
 2014-08-05 08:40:33,   2014.592771213851,  392.6900,       nan,       nan,  396.4714,       nan,       nan,       nan,       nan,  391.8830,  393.4700,       nan
 2014-08-05 09:50:07,   2014.592903570523,  392.1837,       nan,       nan,  396.5486,       nan,       nan,       nan,       nan,  392.0252,  393.2800,       nan
 2014-08-05 10:11:36,   2014.592944444444,  392.9507,       nan,       nan,  396.5486,       nan,       nan,       nan,       nan,  392.0252,  393.2700,       nan
 2014-08-05 10:49:39,   2014.593016837900,  390.5500,       nan,       nan,  396.4605,       nan,       nan,       nan,       nan,  392.0250,  393.2400,       nan
 2014-08-05 11:36:16,   2014.593105530188,  392.8475,       nan,       nan,  396.4606,       nan,       nan,       nan,       nan,  392.0246,  393.2100,       nan
 2014-08-05 13:03:39,   2014.593271784627,  392.3600,       nan,       nan,  396.1291,       nan,       nan,       nan,       nan,  391.6621,  393.4700,       nan
 2014-08-05 13:35:42,   2014.593332762557,  390.6450,       nan,       nan,  395.9114,       nan,       nan,       nan,       nan,  391.4486,  393.6500,       nan
 2014-08-07 13:33:14,   2014.598807521563,  390.1667,       nan,       nan,  395.3947,       nan,       nan,       nan,       nan,  389.9280,  393.7700,       nan
 2014-08-08 14:18:54,   2014.601634132420,  390.7175,       nan,       nan,  395.3119,       nan,       nan,       nan,       nan,  388.6709,  392.6000,       nan
 2014-08-08 14:30:50,   2014.601656836631,  389.6950,       nan,       nan,  395.3122,       nan,       nan,       nan,       nan,  388.6715,  392.6100,       nan
 2014-08-09 09:41:46,   2014.603846588026,  392.3733,       nan,       nan,  396.4093,       nan,       nan,       nan,       nan,  392.1254,  393.4100,       nan
 2014-08-09 10:16:57,   2014.603913527397,  392.3450,       nan,       nan,  396.4093,       nan,       nan,       nan,       nan,  392.1252,  393.4400,       nan
 2014-08-09 10:37:38,   2014.603952879249,  391.6910,       nan,       nan,  396.3539,       nan,       nan,       nan,       nan,  392.1250,  393.4700,       nan
 2014-08-09 11:12:48,   2014.604019786910,  392.3100,       nan,       nan,  396.3540,       nan,       nan,       nan,       nan,  392.1249,  393.5000,       nan
 2014-08-09 11:36:31,   2014.604064909944,  392.3238,       nan,       nan,  396.3541,       nan,       nan,       nan,       nan,  392.1246,  393.5300,       nan
 2014-08-09 13:12:21,   2014.604247241248,  392.4755,       nan,       nan,  396.0941,       nan,       nan,       nan,       nan,  392.2064,  394.0000,       nan